Regional Weather Roundup
Issued by NWS Newport/Morehead, NC

Current Version | Previous Version | Text Only | Print | Product List | Glossary Off
Versions: 1 2 3 4 5 6 7 8 9 10 11 12 13 14 15 16 17 18 19 20 21 22 23 24 25 26 27 28 29 30 31 32 33 34 35 36 37 38 39 40 41 42 43 44 45 46 47 48 49 50
000 ASUS42 KMHX 282224 RWRMHX WEATHER ROUNDUP FOR EASTERN NORTH CAROLINA NATIONAL WEATHER SERVICE NEWPORT/MOREHEAD CITY NC 600 PM EDT SAT MAR 28 2015 NOTE: "FAIR" INDICATES FEW OR NO CLOUDS BELOW 12,000 FEET WITH NO SIGNIFICANT WEATHER AND/OR OBSTRUCTIONS TO VISIBILITY NCZ015>017-031-032-045>047-102-103-282300- NORTH COAST CITY SKY/WX TMP DP RH WIND PRES REMARKS EDENTON PTSUNNY 42 23 47 NW8 30.08R ELIZABETH CITY CLOUDY 40 24 53 NW12 30.07R KITTY HAWK MOCLDY 40 27 59 W13 30.06R MANTEO CLOUDY 40 26 59 NW12G18 30.08R $$ NCZ045>047-081-094-103-104-282300- CENTRAL COAST CITY SKY/WX TMP DP RH WIND PRES REMARKS FRISCO MOSUNNY 43 29 57 NW8 30.05R SWANQUARTER N/A 45 N/A N/A NW3G12 30.03R $$ NCZ095-097-098-100-101-282300- SOUTHERN COAST CITY SKY/WX TMP DP RH WIND PRES REMARKS BEAUFORT PTSUNNY 50 28 42 NW14 30.04R CEDAR ISLAND N/A 46 N/A N/A NW13G18 30.09R JACKSONVILLE MOSUNNY 49 25 39 NW12 30.04R PINEY ISLAND CLOUDY N/A N/A N/A NW12 30.04R WILMINGTON PTSUNNY 52 26 36 W12G21 30.04R $$ NCZ011>013-027>030-043-044-078>080-089-090>093-098-282300- COASTAL PLAIN CITY SKY/WX TMP DP RH WIND PRES REMARKS AHOSKIE MOSUNNY 39 20 46 N8 30.08R CLINTON SUNNY 48 22 35 NW9G17 30.08R ELIZABETHTOWN SUNNY 50 20 30 NW10G20 30.06R GOLDSBORO SUNNY 47 20 34 NW13 30.05R GREENVILLE SUNNY 45 14 29 N8 30.09R HAVELOCK MOSUNNY 49 23 36 NW13 30.05R KENANSVILLE SUNNY 47 19 32 NW12 30.08R KINSTON SUNNY 46 16 29 NW15 30.07R NEW BERN MOSUNNY 48 24 39 NW12 30.06R RICHLANDS MOSUNNY 48 23 37 NW5 30.07R ROCKY MOUNT SUNNY 45 14 28 W8G17 30.07R WASHINGTON MOSUNNY 44 19 37 NW9 30.08R WHITEVILLE MOSUNNY 52 23 32 W7 30.06R $$ AMZ130-135-150-152-154-156-158-170-250-252-270-ANZ085-086-088-633-658-670-282300- MARINE OBSERVATIONS STATION/POSITION TIME TEMP WIND PRES WAVE SWELL AIR SEA DIR/SP/G HT/PER HT/PER (UTC) (F) (DEG/KT/KT) (MB) (FT/S) (FT/S) CHESAPEAKE LIGHT 2200 38 310/ 16/ 20 1018.3 64 E VA BEACH 2150 39 57 320/ 17/ 23 1016.6 7/ 8 5/ 8 DUCK 2200 40 42 310/ 15/ 23 1017.0 2 E DUCK 2111 42 N/A 5/ 8 2/11 10 NE DUCK NOT AVBL OREGON INLET 2200 40 46 310/ 14/ 20 1018.0 HATTERAS CG 2200 43 54 340/ 12/ 15 1017.9 CAPE LOOKOUT 2200 49 300/ 10/ 13 1016.8 BEAUFORT LAB 2200 49 56 340/ 7/ 16 1016.3 27 SE WRIGHTSVLE 2200 50 65 310/ 16/ 19 1018.6 5 SE WRIGHTSVLE 2200 52 56 300/ 17/ 21 1017.1 225 S CAPE HAT 2150 60 69 300/ 16/ 21 1016.0 11/10 8/10 41 SE CHARLESTON 2150 56 68 290/ 16/ 21 1017.3 4/ 7 2/ 7 $$

USA.gov is the U.S. government's official web portal to all federal, state and local government web resources and services.